When you browse on this site, cookies collect data to enhance your experience and personalize the content and advertising you see.
Visit our Privacy Policy to learn more. By continuing to use the site, you agree to this use of cookies and data.
  • In Romania
  • List of Countries
  • For 7 days
  • Water Temperature
  • Satellite Maps
  • Weather Map
  • Weather Widgets
  • user-avatar
    Login

    Hourly Weather Seram

    Today, 22 April, Monday

    Time Temperature Precipitation Wind Pressure Humidity
    00:00 +38°C° 0 mm 2 mps 719 mmHg 22%
    01:00 +37°C° 0 mm 2 mps 718 mmHg 23%
    02:00 +37°C° 0 mm 2 mps 718 mmHg 24%
    03:00 +36°C° 0 mm 3 mps 718 mmHg 28%
    04:00 +35°C° 0 mm 4 mps 719 mmHg 32%
    05:00 +34°C° 0 mm 4 mps 719 mmHg 37%
    06:00 +35°C° 0 mm 4 mps 719 mmHg 37%
    07:00 +36°C° 0 mm 4 mps 720 mmHg 37%
    08:00 +36°C° 0 mm 4 mps 720 mmHg 38%
    09:00 +38°C° 0 mm 4 mps 721 mmHg 34%
    10:00 +40°C° 0 mm 4 mps 721 mmHg 29%
    11:00 +41°C° 0 mm 4 mps 721 mmHg 25%
    12:00 +40°C° 0 mm 3 mps 720 mmHg 25%
    13:00 +40°C° 0 mm 3 mps 719 mmHg 24%
    14:00 +40°C° 0 mm 2 mps 719 mmHg 24%
    15:00 +39°C° 0.7 mm 3 mps 718 mmHg 27%
    16:00 +38°C° 0.7 mm 4 mps 718 mmHg 31%
    17:00 +36°C° 0.7 mm 4 mps 718 mmHg 35%
    18:00 +36°C° 0 mm 5 mps 719 mmHg 36%
    19:00 +35°C° 0 mm 7 mps 719 mmHg 37%
    20:00 +35°C° 0 mm 8 mps 720 mmHg 38%
    21:00 +34°C° 0 mm 7 mps 720 mmHg 39%
    22:00 +34°C° 0 mm 7 mps 720 mmHg 39%
    23:00 +33°C° 0 mm 6 mps 721 mmHg 40%

    Tomorrow, 23 April, Tuesday

    Time Temperature Precipitation Wind Pressure Humidity
    00:00 +33°C° 0 mm 5 mps 720 mmHg 39%
    01:00 +33°C° 0 mm 4 mps 720 mmHg 39%
    02:00 +32°C° 0 mm 2 mps 720 mmHg 38%
    03:00 +31°C° 0 mm 2 mps 720 mmHg 39%
    04:00 +31°C° 0 mm 2 mps 720 mmHg 40%
    05:00 +30°C° 0 mm 1 mps 720 mmHg 41%
    06:00 +32°C° 0 mm 1 mps 721 mmHg 38%
    07:00 +34°C° 0 mm 2 mps 721 mmHg 36%
    08:00 +35°C° 0 mm 2 mps 722 mmHg 33%
    09:00 +35°C° 0 mm 1 mps 722 mmHg 29%
    10:00 +37°C° 0 mm 1 mps 722 mmHg 25%
    11:00 +37°C° 0 mm 0 mps 722 mmHg 21%
    12:00 +40°C° 0 mm 1 mps 721 mmHg 18%
    13:00 +42°C° 0 mm 3 mps 721 mmHg 16%
    14:00 +43°C° 0 mm 4 mps 720 mmHg 14%
    15:00 +43°C° 0 mm 4 mps 720 mmHg 14%
    16:00 +43°C° 0 mm 4 mps 720 mmHg 13%
    17:00 +42°C° 0 mm 3 mps 719 mmHg 13%
    18:00 +42°C° 0 mm 3 mps 720 mmHg 14%
    19:00 +40°C° 0 mm 3 mps 720 mmHg 16%
    20:00 +39°C° 0 mm 3 mps 721 mmHg 18%
    21:00 +38°C° 0 mm 3 mps 721 mmHg 20%
    22:00 +37°C° 0 mm 3 mps 721 mmHg 23%
    23:00 +37°C° 0 mm 3 mps 721 mmHg 26%

    Day after tomorrow, 24 April, Wednesday

    Time Temperature Precipitation Wind Pressure Humidity
    00:00 +36°C° 0 mm 4 mps 721 mmHg 30%
    01:00 +35°C° 0 mm 4 mps 721 mmHg 35%
    02:00 +34°C° 0 mm 4 mps 720 mmHg 39%
    03:00 +34°C° 0 mm 4 mps 720 mmHg 42%
    04:00 +33°C° 0 mm 3 mps 720 mmHg 44%
    05:00 +32°C° 0 mm 2 mps 720 mmHg 46%
    06:00 +34°C° 0 mm 3 mps 721 mmHg 42%
    07:00 +35°C° 0 mm 3 mps 722 mmHg 38%
    08:00 +37°C° 0 mm 3 mps 723 mmHg 33%
    09:00 +38°C° 0 mm 3 mps 723 mmHg 28%
    10:00 +41°C° 0 mm 4 mps 723 mmHg 23%
    11:00 +42°C° 0 mm 4 mps 723 mmHg 18%
    12:00 +43°C° 0 mm 4 mps 722 mmHg 16%
    13:00 +44°C° 0 mm 4 mps 721 mmHg 14%
    14:00 +44°C° 0 mm 4 mps 720 mmHg 12%
    15:00 +44°C° 0 mm 4 mps 720 mmHg 12%
    16:00 +44°C° 0 mm 4 mps 719 mmHg 12%
    17:00 +43°C° 0 mm 3 mps 719 mmHg 12%
    18:00 +42°C° 0 mm 4 mps 720 mmHg 13%
    19:00 +42°C° 0 mm 4 mps 720 mmHg 15%
    20:00 +41°C° 0 mm 4 mps 721 mmHg 16%
    21:00 +40°C° 0 mm 4 mps 721 mmHg 18%
    22:00 +39°C° 0 mm 5 mps 721 mmHg 20%
    23:00 +37°C° 0 mm 5 mps 721 mmHg 22%

    25 April, Thursday

    Time Temperature Precipitation Wind Pressure Humidity
    00:00 +37°C° 0 mm 4 mps 721 mmHg 24%
    01:00 +36°C° 0 mm 3 mps 720 mmHg 26%
    02:00 +35°C° 0 mm 3 mps 720 mmHg 28%
    03:00 +35°C° 0 mm 3 mps 720 mmHg 30%
    04:00 +34°C° 0 mm 3 mps 720 mmHg 31%
    05:00 +33°C° 0 mm 3 mps 720 mmHg 33%
    06:00 +35°C° 0 mm 3 mps 721 mmHg 29%
    07:00 +36°C° 0 mm 4 mps 722 mmHg 26%
    08:00 +37°C° 0 mm 4 mps 723 mmHg 23%
    09:00 +40°C° 0 mm 4 mps 723 mmHg 20%
    10:00 +42°C° 0 mm 4 mps 723 mmHg 17%
    11:00 +43°C° 0 mm 5 mps 723 mmHg 14%
    12:00 +44°C° 0 mm 4 mps 722 mmHg 13%
    13:00 +44°C° 0 mm 3 mps 721 mmHg 12%
    14:00 +45°C° 0 mm 3 mps 720 mmHg 11%
    15:00 +45°C° 0 mm 2 mps 720 mmHg 11%
    16:00 +43°C° 0 mm 2 mps 719 mmHg 11%
    17:00 +43°C° 0 mm 2 mps 719 mmHg 11%
    18:00 +43°C° 0 mm 2 mps 720 mmHg 12%
    19:00 +42°C° 0 mm 1 mps 720 mmHg 12%
    20:00 +42°C° 0 mm 1 mps 721 mmHg 13%
    21:00 +41°C° 0 mm 2 mps 721 mmHg 14%
    22:00 +42°C° 0 mm 3 mps 721 mmHg 15%
    23:00 +40°C° 0 mm 3 mps 721 mmHg 16%

    26 April, Friday

    Time Temperature Precipitation Wind Pressure Humidity
    00:00 +40°C° 0 mm 4 mps 720 mmHg 19%
    01:00 +39°C° 0 mm 5 mps 719 mmHg 23%
    02:00 +36°C° 0 mm 6 mps 719 mmHg 27%
    03:00 +36°C° 0 mm 5 mps 719 mmHg 29%
    04:00 +35°C° 0 mm 5 mps 719 mmHg 32%
    05:00 +35°C° 0 mm 4 mps 719 mmHg 35%
    06:00 +35°C° 0 mm 4 mps 720 mmHg 33%
    07:00 +36°C° 0 mm 4 mps 721 mmHg 31%
    08:00 +37°C° 0 mm 5 mps 722 mmHg 29%
    09:00 +38°C° 0 mm 4 mps 722 mmHg 27%
    10:00 +40°C° 0 mm 4 mps 721 mmHg 25%
    11:00 +39°C° 0 mm 3 mps 721 mmHg 23%
    12:00 +42°C° 0 mm 3 mps 721 mmHg 20%
    13:00 +43°C° 0 mm 3 mps 720 mmHg 17%
    14:00 +45°C° 0 mm 3 mps 719 mmHg 15%
    15:00 +45°C° 0 mm 3 mps 719 mmHg 14%
    16:00 +45°C° 0 mm 2 mps 719 mmHg 13%
    17:00 +45°C° 0 mm 2 mps 718 mmHg 12%
    18:00 +43°C° 0 mm 2 mps 719 mmHg 13%
    19:00 +43°C° 0 mm 3 mps 719 mmHg 14%
    20:00 +42°C° 0 mm 3 mps 720 mmHg 15%
    21:00 +42°C° 0 mm 3 mps 720 mmHg 16%
    22:00 +40°C° 0 mm 3 mps 720 mmHg 17%
    23:00 +39°C° 0 mm 3 mps 720 mmHg 17%

    27 April, Saturday

    Time Temperature Precipitation Wind Pressure Humidity
    00:00 +39°C° 0 mm 3 mps 719 mmHg 18%
    01:00 +38°C° 0 mm 3 mps 719 mmHg 20%
    02:00 +37°C° 0 mm 3 mps 719 mmHg 21%
    03:00 +37°C° 0 mm 3 mps 719 mmHg 24%
    04:00 +36°C° 0 mm 3 mps 719 mmHg 28%
    05:00 +35°C° 0 mm 2 mps 719 mmHg 31%
    06:00 +36°C° 0 mm 2 mps 720 mmHg 29%
    07:00 +38°C° 0 mm 3 mps 721 mmHg 27%
    08:00 +39°C° 0 mm 3 mps 721 mmHg 25%
    09:00 +42°C° 0 mm 4 mps 721 mmHg 22%
    10:00 +43°C° 0 mm 4 mps 721 mmHg 19%
    11:00 +45°C° 0 mm 4 mps 721 mmHg 16%
    12:00 +45°C° 0 mm 3 mps 720 mmHg 14%
    13:00 +46°C° 0 mm 3 mps 719 mmHg 13%
    14:00 +46°C° 0 mm 2 mps 718 mmHg 11%
    15:00 +46°C° 0 mm 2 mps 718 mmHg 11%
    16:00 +46°C° 0 mm 2 mps 718 mmHg 11%
    17:00 +46°C° 0 mm 2 mps 718 mmHg 11%
    18:00 +45°C° 0 mm 2 mps 718 mmHg 12%
    19:00 +43°C° 0 mm 2 mps 719 mmHg 13%
    20:00 +42°C° 0 mm 2 mps 719 mmHg 14%
    21:00 +42°C° 0 mm 2 mps 720 mmHg 15%
    22:00 +41°C° 0 mm 2 mps 720 mmHg 15%
    23:00 +41°C° 0 mm 1 mps 720 mmHg 16%
    Show more